Simultaneous Nadir Overpasses (SNOs) Predictions

Prediction of SNOs between METOP-B and NPP Satellite Orbit:

Table of predicted SNOs for the next 14.0 days since TLE Epoch: 6/25/2022
Index Date (METOP-B) Time (METOP-B) Lat,Lon (METOP-B) SZA (METOP-B ) Date (NPP) Time (NPP) Lat,Lon (NPP) SZA (NPP ) Distance(km) Time Diff (sec)
1 06/25/2022 04:00:04 72.70, 111.73 49.46 06/25/2022 04:00:58 72.70, 111.71 49.46 0.96 54
2 06/25/2022 04:50:46 -72.71, -80.92 130.53 06/25/2022 04:51:42 -72.71, -80.99 130.54 2.17 56
3 06/25/2022 05:41:26 72.68, 86.35 49.45 06/25/2022 05:42:28 72.70, 86.33 49.46 2.86 62
4 06/25/2022 06:32:08 -72.69,-106.30 130.55 06/25/2022 06:33:12 -72.71,-106.36 130.54 3.08 64
5 06/25/2022 07:22:48 72.65, 60.97 49.43 06/25/2022 07:23:57 72.65, 61.06 49.41 2.99 69
6 06/25/2022 08:13:30 -72.66,-131.69 130.56 06/25/2022 08:14:41 -72.66,-131.64 130.59 1.87 71
7 06/25/2022 09:04:13 72.48, 35.28 49.28 06/25/2022 09:05:25 72.55, 35.89 49.30 21.85 72
8 06/25/2022 09:54:56 -72.44,-157.48 130.76 06/25/2022 09:56:08 -72.51,-156.70 130.75 26.95 72
9 06/25/2022 10:45:40 72.20, 9.39 49.04 06/25/2022 10:46:49 72.24, 11.12 48.97 58.87 69
10 06/25/2022 11:36:23 -72.16, 176.64 130.99 06/25/2022 11:37:32 -72.20, 178.52 131.08 64.16 69



Historial Predications of SNOs between METOP-B and NPP
